DORA (61502 NORAD) Tracking and Keplerian Element Data

This shows tracking and keplerian element data for the satellite.

Feedback or suggestion? Click here.




ElementValue
Catalog61502
NameDORA
Epoch Orbit72
Epoch Day286.88162917
Epoch Year2024
RAAN92.3918
Inclination51.6368
Eccentricity0.0006243
Argument of Perigee76.3211
Mean Anonmoly283.8473
Mean Motion15.52215793
Decay Rate0.00222031
L11 61502U 98067XA 24286.88162917 .00222031 00000+0 35005-2 0 9992
L22 61502 51.6368 92.3918 0006243 76.3211 283.8473 15.52215793 726



Live tracking and technical data element details for DORA (NORAD 61502). DORA can be tracked NOW for your location showing map with azimuth and elevation plus other details from your city location.







IsCatalogInMostPopularTable: catalog: 61502, numindb: 26
Update: records affected: 1



GetName: 61502 DORA

Hit Count: updated at: Wed, 04 Dec 2024 08:53:31 GMT